Location: Page Park
(26.5792°N, 81.8620°W)
Time: 23:33:08
(UTC+00:00)

Daily predictions for brighter satellites

Satellite Brightness Start Highest point End
(mag) Time Altitude Azimuth Time Altitude Azimuth Time Altitude Azimuth
Cosmos 2297 Rocket 2.2 23:37:51 10° NNW 23:43:32 86° ENE 23:49:10 10° SSE
Cosmos 1500 Rocket 3.9 23:40:32 10° S 23:44:54 72° W 23:49:14 10° N
COSMOS 2455 4.5 23:42:00 10° NNE 23:44:56 14° NE 23:47:50 10° E
Cosmos 220 Rocket 3.9 23:40:48 10° S 23:44:58 77° ESE 23:49:10 10° NNE
Okean-O 3.7 23:42:32 10° SE 23:46:06 24° ENE 23:49:39 10° NNE
SEDSat Delta rocket 3.5 23:41:30 10° WNW 23:46:28 54° N 23:50:48 10° E
CZ-2C R/B 3.4 23:44:01 10° NE 23:48:46 30° E 23:53:23 10° SSE
Meteor 2-6 Rocket 4.2 23:44:58 10° N 23:50:37 77° E 23:56:04 10° S
Cosmos 1709 Rocket 4.3 23:45:00 10° S 23:51:05 74° W 23:57:15 10° N
Sich 1 3.3 23:49:32 10° SSE 23:53:40 45° E 23:57:50 10° NNE
COSMO-SKYMED 1 4.0 23:49:35 10° N 23:53:40 42° WNW 23:57:45 10° SW
CZ-4B R/B 3.4 23:52:15 10° NNW 23:54:57 30° WNW 23:57:40 10° SW
Lacrosse 5 rocket 3.4 23:54:44 10° NNE 23:56:09 11° NE 23:57:33 10° ENE
